User: anonymous   Login
Location: Unspecified
(0.0000°N, 0.0000°E)
Time: 01:10:01
(UTC+02:00)
Language:

ADEOS II - Orbit

View from above orbital plane
View from above orbital plane
View from above satellite
View from above satellite

Ground track
Ground track

The orbit data is extracted from the following two-line orbital elements,

1 27597U 02056A   16122.88585774  .00000123  00000-0  67168-4 0  9995
2 27597  98.3187 105.2256 0002268  92.4391 267.7050 14.27205788696759
Epoch (UTC): 01 May 2016 21:15:38
Eccentricity: 0.0002268
inclination: 98.3187°
perigee height: 799 km
apogee height: 803 km
right ascension of ascending node: 105.2256°
argument of perigee: 92.4391°
revolutions per day: 14.27205788
mean anomaly at epoch: 267.7050°
orbit number at epoch: 69675

The dashed part of the orbit path shows where the satellite is in the earth's shadow,  

DLR